Location: Dumpton Point
(51.3500°N, 1.4433°E)
Time: 10:10:22
(UTC+00:00)

Cosmos 1812 Rocket - Pass Details

Date: 09 April 2020
Orbit: 607 x 631 km, 82.5° (Epoch: 25 May)

Event Time Altitude Azimuth Distance (km) Brightness Sun altitude
Exits shadow 21:02:23 19° 201° (SSW) 1,474 5.3 -20.0°
Maximum altitude 21:05:28 68° 282° (WNW) 659 3.8 -20.3°
Drops below altitude 10° 21:09:49 10° 6° (N) 1,971 6.6 -20.8°
Sets 21:12:03 0° 9° (N) 2,880 7.5 -21.0°
